����������;��������(kVARh)
2017-06-12 00:00;7
2017-06-12 00:15;7,25
2017-06-12 00:30;7,6
2017-06-12 00:45;14,55
2017-06-12 01:00;19,05
2017-06-12 01:15;18,15
2017-06-12 01:30;12,95
2017-06-12 01:45;14,8
2017-06-12 02:00;16,7
2017-06-12 02:15;16,35
2017-06-12 02:30;16,55
2017-06-12 02:45;16,15
2017-06-12 03:00;17,2
2017-06-12 03:15;20,1
2017-06-12 03:30;20,15
2017-06-12 03:45;16
2017-06-12 04:00;22,55
2017-06-12 04:15;22,1
2017-06-12 04:30;20,9
2017-06-12 04:45;21,9
2017-06-12 05:00;22
2017-06-12 05:15;21,2
2017-06-12 05:30;22,2
2017-06-12 05:45;24,2
2017-06-12 06:00;24,2
2017-06-12 06:15;21,95
2017-06-12 06:30;23
2017-06-12 06:45;19,4
2017-06-12 07:00;19,05
2017-06-12 07:15;20,85
2017-06-12 07:30;47,7
2017-06-12 07:45;21,25
2017-06-12 08:00;23,2
2017-06-12 08:15;23,6
2017-06-12 08:30;26,25
2017-06-12 08:45;26,75
2017-06-12 09:00;29,85
2017-06-12 09:15;32,65
2017-06-12 09:30;41,65
2017-06-12 09:45;70,95
2017-06-12 10:00;53,55
2017-06-12 10:15;44,95
2017-06-12 10:30;45,55
2017-06-12 10:45;58
2017-06-12 11:00;58,05
2017-06-12 11:15;53,6
2017-06-12 11:30;59,9
2017-06-12 11:45;68,6
2017-06-12 12:00;67,6
2017-06-12 12:15;67,1
2017-06-12 12:30;66,05
2017-06-12 12:45;64,9
2017-06-12 13:00;54,5
2017-06-12 13:15;57,8
2017-06-12 13:30;57,75
2017-06-12 13:45;53,1
2017-06-12 14:00;51,75
2017-06-12 14:15;55,85
2017-06-12 14:30;54,35
2017-06-12 14:45;53,95
2017-06-12 15:00;58,65
2017-06-12 15:15;57,65
2017-06-12 15:30;56,75
2017-06-12 15:45;66,4
2017-06-12 16:00;68,6
2017-06-12 16:15;49,8
2017-06-12 16:30;50,15
2017-06-12 16:45;52,9
2017-06-12 17:00;50,75
2017-06-12 17:15;52,25
2017-06-12 17:30;35,3
2017-06-12 17:45;33,5
2017-06-12 18:00;32,15
2017-06-12 18:15;32,95
2017-06-12 18:30;31,8
2017-06-12 18:45;29,55
2017-06-12 19:00;26,65
2017-06-12 19:15;22,8
2017-06-12 19:30;27,55
2017-06-12 19:45;26,05
2017-06-12 20:00;23,9
2017-06-12 20:15;17,55
2017-06-12 20:30;19
2017-06-12 20:45;20,25
2017-06-12 21:00;17,2
2017-06-12 21:15;16,55
2017-06-12 21:30;16,7
2017-06-12 21:45;16,35
2017-06-12 22:00;13,9
2017-06-12 22:15;15,15
2017-06-12 22:30;19,15
2017-06-12 22:45;13
2017-06-12 23:00;14,1
2017-06-12 23:15;14,8
2017-06-12 23:30;9,65
2017-06-12 23:45;8,95
2017-06-13 00:00;9,3
2017-06-13 00:15;11,1
2017-06-13 00:30;12,1
2017-06-13 00:45;15,3
2017-06-13 01:00;15,7
2017-06-13 01:15;6,4
2017-06-13 01:30;7,05
2017-06-13 01:45;8,55
2017-06-13 02:00;6,05
2017-06-13 02:15;6
2017-06-13 02:30;8,45
2017-06-13 02:45;2,65
2017-06-13 03:00;1,6
2017-06-13 03:15;0,85
2017-06-13 03:30;1,15
2017-06-13 03:45;2,05
2017-06-13 04:00;1,55
2017-06-13 04:15;1,35
2017-06-13 04:30;1,35
2017-06-13 04:45;1,65
2017-06-13 05:00;1,8
2017-06-13 05:15;1,95
2017-06-13 05:30;4,3
2017-06-13 05:45;3,05
2017-06-13 06:00;2,7
2017-06-13 06:15;3,9
2017-06-13 06:30;6,15
2017-06-13 06:45;14,15
2017-06-13 07:00;7,7
2017-06-13 07:15;13,2
2017-06-13 07:30;42,6
2017-06-13 07:45;15,75
2017-06-13 08:00;26,55
2017-06-13 08:15;27,25
2017-06-13 08:30;25,5
2017-06-13 08:45;31,7
2017-06-13 09:00;33,8
2017-06-13 09:15;40,65
2017-06-13 09:30;63,8
2017-06-13 09:45;40,15
2017-06-13 10:00;58,15
2017-06-13 10:15;57,75
2017-06-13 10:30;57,5
2017-06-13 10:45;56,35
2017-06-13 11:00;62,1
2017-06-13 11:15;65,9
2017-06-13 11:30;63,6
2017-06-13 11:45;64,3
2017-06-13 12:00;74,7
2017-06-13 12:15;78,65
2017-06-13 12:30;78,3
2017-06-13 12:45;75,05
2017-06-13 13:00;76,55
2017-06-13 13:15;74,4
2017-06-13 13:30;74,35
2017-06-13 13:45;70,9
2017-06-13 14:00;68,3
2017-06-13 14:15;65,15
2017-06-13 14:30;59,35
2017-06-13 14:45;60,85
2017-06-13 15:00;63,3
2017-06-13 15:15;59,45
2017-06-13 15:30;56,4
2017-06-13 15:45;59,8
2017-06-13 16:00;60,55
2017-06-13 16:15;50,75
2017-06-13 16:30;49,05
2017-06-13 16:45;50,65
2017-06-13 17:00;43
2017-06-13 17:15;45,2
2017-06-13 17:30;38,1
2017-06-13 17:45;36,95
2017-06-13 18:00;30,45
2017-06-13 18:15;29,5
2017-06-13 18:30;27,8
2017-06-13 18:45;25,6
2017-06-13 19:00;27,25
2017-06-13 19:15;26,5
2017-06-13 19:30;26,15
2017-06-13 19:45;25,4
2017-06-13 20:00;25,45
2017-06-13 20:15;22,15
2017-06-13 20:30;24,2
2017-06-13 20:45;23,55
2017-06-13 21:00;20,35
2017-06-13 21:15;18,15
2017-06-13 21:30;19,8
2017-06-13 21:45;20,35
2017-06-13 22:00;18,1
2017-06-13 22:15;17
2017-06-13 22:30;17,9
2017-06-13 22:45;14,65
2017-06-13 23:00;16,25
2017-06-13 23:15;13,1
2017-06-13 23:30;9,35
2017-06-13 23:45;7,05
2017-06-14 00:00;3,35
2017-06-14 00:15;2,8
2017-06-14 00:30;4,05
2017-06-14 00:45;2,55
2017-06-14 01:00;3,85
2017-06-14 01:15;4,5
2017-06-14 01:30;2,9
2017-06-14 01:45;4,15
2017-06-14 02:00;5,55
2017-06-14 02:15;4,55
2017-06-14 02:30;5,75
2017-06-14 02:45;6,65
2017-06-14 03:00;6,6
2017-06-14 03:15;4,85
2017-06-14 03:30;4,75
2017-06-14 03:45;6,35
2017-06-14 04:00;6
2017-06-14 04:15;5,75
2017-06-14 04:30;5
2017-06-14 04:45;4,85
2017-06-14 05:00;5,8
2017-06-14 05:15;5
2017-06-14 05:30;5,45
2017-06-14 05:45;7,35
2017-06-14 06:00;7,3
2017-06-14 06:15;6,75
2017-06-14 06:30;14,05
2017-06-14 06:45;12,6
2017-06-14 07:00;8,4
2017-06-14 07:15;19,1
2017-06-14 07:30;61,5
2017-06-14 07:45;31,7
2017-06-14 08:00;34,45
2017-06-14 08:15;29,45
2017-06-14 08:30;24,7
2017-06-14 08:45;34
2017-06-14 09:00;33,2
2017-06-14 09:15;38,85
2017-06-14 09:30;36,8
2017-06-14 09:45;38,35
2017-06-14 10:00;43,4
2017-06-14 10:15;39,45
2017-06-14 10:30;48,7
2017-06-14 10:45;73,5
2017-06-14 11:00;82,7
2017-06-14 11:15;63,8
2017-06-14 11:30;61,6
2017-06-14 11:45;73,9
2017-06-14 12:00;75,45
2017-06-14 12:15;74,35
2017-06-14 12:30;74,55
2017-06-14 12:45;75,95
2017-06-14 13:00;73,45
2017-06-14 13:15;73,95
2017-06-14 13:30;73,15
2017-06-14 13:45;76,55
2017-06-14 14:00;73,45
2017-06-14 14:15;71,05
2017-06-14 14:30;74,05
2017-06-14 14:45;75,45
2017-06-14 15:00;76,35
2017-06-14 15:15;75,45
2017-06-14 15:30;76,65
2017-06-14 15:45;64,25
2017-06-14 16:00;60,3
2017-06-14 16:15;56,85
2017-06-14 16:30;54,5
2017-06-14 16:45;52,8
2017-06-14 17:00;51,7
2017-06-14 17:15;52,15
2017-06-14 17:30;43,65
2017-06-14 17:45;45,45
2017-06-14 18:00;41,3
2017-06-14 18:15;40,55
2017-06-14 18:30;38,3
2017-06-14 18:45;38,55
2017-06-14 19:00;33,9
2017-06-14 19:15;22,9
2017-06-14 19:30;23,15
2017-06-14 19:45;23,25
2017-06-14 20:00;21,65
2017-06-14 20:15;18,7
2017-06-14 20:30;18,7
2017-06-14 20:45;20,6
2017-06-14 21:00;16,8
2017-06-14 21:15;12,85
2017-06-14 21:30;11,2
2017-06-14 21:45;10,55
2017-06-14 22:00;6
2017-06-14 22:15;6,15
2017-06-14 22:30;2,95
2017-06-14 22:45;2,3
2017-06-14 23:00;2,55
2017-06-14 23:15;2,8
2017-06-14 23:30;2,65
2017-06-14 23:45;2,95
2017-06-15 00:00;2,75
2017-06-15 00:15;2,2
2017-06-15 00:30;2
2017-06-15 00:45;1,9
2017-06-15 01:00;2,85
2017-06-15 01:15;2,95
2017-06-15 01:30;3,65
2017-06-15 01:45;3,75
2017-06-15 02:00;4
2017-06-15 02:15;4,5
2017-06-15 02:30;3,5
2017-06-15 02:45;4,35
2017-06-15 03:00;5,4
2017-06-15 03:15;5,8
2017-06-15 03:30;6
2017-06-15 03:45;9,7
2017-06-15 04:00;8,5
2017-06-15 04:15;8,65
2017-06-15 04:30;10,55
2017-06-15 04:45;7,85
2017-06-15 05:00;9,2
2017-06-15 05:15;10,35
2017-06-15 05:30;9,55
2017-06-15 05:45;9,7
2017-06-15 06:00;13,85
2017-06-15 06:15;16,1
2017-06-15 06:30;24,05
2017-06-15 06:45;26,6
2017-06-15 07:00;19,95
2017-06-15 07:15;22,45
2017-06-15 07:30;48,75
2017-06-15 07:45;33,5
2017-06-15 08:00;33,95
2017-06-15 08:15;51,1
2017-06-15 08:30;55,8
2017-06-15 08:45;41,4
2017-06-15 09:00;48,15
2017-06-15 09:15;53
2017-06-15 09:30;44,65
2017-06-15 09:45;45,4
2017-06-15 10:00;52,25
2017-06-15 10:15;51,05
2017-06-15 10:30;54,15
2017-06-15 10:45;62,15
2017-06-15 11:00;57,6
2017-06-15 11:15;56,9
2017-06-15 11:30;64
2017-06-15 11:45;64,8
2017-06-15 12:00;72,4
2017-06-15 12:15;73,05
2017-06-15 12:30;71,55
2017-06-15 12:45;78,4
2017-06-15 13:00;72,1
2017-06-15 13:15;70,8
2017-06-15 13:30;78,1
2017-06-15 13:45;72,8
2017-06-15 14:00;80,3
2017-06-15 14:15;79,65
2017-06-15 14:30;73,65
2017-06-15 14:45;83,35
2017-06-15 15:00;72,3
2017-06-15 15:15;75,3
2017-06-15 15:30;73,55
2017-06-15 15:45;72,85
2017-06-15 16:00;73,2
2017-06-15 16:15;55,95
2017-06-15 16:30;49,3
2017-06-15 16:45;47,2
2017-06-15 17:00;45,5
2017-06-15 17:15;44,65
2017-06-15 17:30;41,25
2017-06-15 17:45;38,4
2017-06-15 18:00;38,5
2017-06-15 18:15;37,3
2017-06-15 18:30;32,9
2017-06-15 18:45;32,05
2017-06-15 19:00;31,25
2017-06-15 19:15;27,95
2017-06-15 19:30;29,45
2017-06-15 19:45;25,1
2017-06-15 20:00;23,8
2017-06-15 20:15;22,65
2017-06-15 20:30;20,85
2017-06-15 20:45;23,3
2017-06-15 21:00;20,9
2017-06-15 21:15;21,2
2017-06-15 21:30;21,95
2017-06-15 21:45;22,45
2017-06-15 22:00;22,35
2017-06-15 22:15;21,05
2017-06-15 22:30;21,6
2017-06-15 22:45;18,75
2017-06-15 23:00;19,75
2017-06-15 23:15;20,15
2017-06-15 23:30;15,45
2017-06-15 23:45;17,85
2017-06-16 00:00;14,3
2017-06-16 00:15;13,35
2017-06-16 00:30;15,4
2017-06-16 00:45;10,55
2017-06-16 01:00;4,65
2017-06-16 01:15;5,75
2017-06-16 01:30;4,15
2017-06-16 01:45;4,7
2017-06-16 02:00;3,5
2017-06-16 02:15;3,4
2017-06-16 02:30;5,05
2017-06-16 02:45;5,2
2017-06-16 03:00;4,9
2017-06-16 03:15;5,5
2017-06-16 03:30;6,1
2017-06-16 03:45;5,95
2017-06-16 04:00;5,7
2017-06-16 04:15;6,1
2017-06-16 04:30;5,3
2017-06-16 04:45;6,7
2017-06-16 05:00;6,45
2017-06-16 05:15;7,35
2017-06-16 05:30;7,05
2017-06-16 05:45;7,5
2017-06-16 06:00;6,8
2017-06-16 06:15;6,25
2017-06-16 06:30;6,8
2017-06-16 06:45;17,45
2017-06-16 07:00;12,4
2017-06-16 07:15;10,05
2017-06-16 07:30;47,2
2017-06-16 07:45;30,15
2017-06-16 08:00;35,25
2017-06-16 08:15;53,6
2017-06-16 08:30;55,9
2017-06-16 08:45;44,95
2017-06-16 09:00;44,35
2017-06-16 09:15;47,2
2017-06-16 09:30;49,25
2017-06-16 09:45;46,35
2017-06-16 10:00;45
2017-06-16 10:15;51,5
2017-06-16 10:30;57,2
2017-06-16 10:45;59,4
2017-06-16 11:00;59,35
2017-06-16 11:15;59,8
2017-06-16 11:30;77,35
2017-06-16 11:45;80,3
2017-06-16 12:00;79,3
2017-06-16 12:15;78,3
2017-06-16 12:30;83,6
2017-06-16 12:45;76,25
2017-06-16 13:00;64,95
2017-06-16 13:15;65,5
2017-06-16 13:30;64,7
2017-06-16 13:45;60,05
2017-06-16 14:00;62,1
2017-06-16 14:15;62,25
2017-06-16 14:30;65,15
2017-06-16 14:45;63,9
2017-06-16 15:00;64,5
2017-06-16 15:15;61,85
2017-06-16 15:30;61
2017-06-16 15:45;60,35
2017-06-16 16:00;58,6
2017-06-16 16:15;56,8
2017-06-16 16:30;53,75
2017-06-16 16:45;55,1
2017-06-16 17:00;51,75
2017-06-16 17:15;50,95
2017-06-16 17:30;50,65
2017-06-16 17:45;45,95
2017-06-16 18:00;47,6
2017-06-16 18:15;38,8
2017-06-16 18:30;39,6
2017-06-16 18:45;38,3
2017-06-16 19:00;35,25
2017-06-16 19:15;30,2
2017-06-16 19:30;29,85
2017-06-16 19:45;28,6
2017-06-16 20:00;26,45
2017-06-16 20:15;22,55
2017-06-16 20:30;21,1
2017-06-16 20:45;21,2
2017-06-16 21:00;21,15
2017-06-16 21:15;18,45
2017-06-16 21:30;19,55
2017-06-16 21:45;21,8
2017-06-16 22:00;20,4
2017-06-16 22:15;17,3
2017-06-16 22:30;18,75
2017-06-16 22:45;20,15
2017-06-16 23:00;20,5
2017-06-16 23:15;19,15
2017-06-16 23:30;19
2017-06-16 23:45;20,85
2017-06-17 00:00;20,7
2017-06-17 00:15;17
2017-06-17 00:30;17,25
2017-06-17 00:45;18,15
2017-06-17 01:00;14,45
2017-06-17 01:15;11,3
2017-06-17 01:30;6,2
2017-06-17 01:45;3,4
2017-06-17 02:00;3,4
2017-06-17 02:15;2,95
2017-06-17 02:30;4,7
2017-06-17 02:45;4,8
2017-06-17 03:00;4,3
2017-06-17 03:15;5,5
2017-06-17 03:30;5,75
2017-06-17 03:45;5,1
2017-06-17 04:00;5,5
2017-06-17 04:15;3,8
2017-06-17 04:30;4,4
2017-06-17 04:45;3,8
2017-06-17 05:00;3,25
2017-06-17 05:15;4,55
2017-06-17 05:30;4,05
2017-06-17 05:45;4,2
2017-06-17 06:00;4,95
2017-06-17 06:15;4,3
2017-06-17 06:30;5,2
2017-06-17 06:45;3,8
2017-06-17 07:00;4,05
2017-06-17 07:15;1,7
2017-06-17 07:30;6,15
2017-06-17 07:45;7,95
2017-06-17 08:00;6,05
2017-06-17 08:15;3,85
2017-06-17 08:30;5,95
2017-06-17 08:45;8,2
2017-06-17 09:00;9
2017-06-17 09:15;8,75
2017-06-17 09:30;6
2017-06-17 09:45;5,5
2017-06-17 10:00;6,1
2017-06-17 10:15;5,65
2017-06-17 10:30;5,65
2017-06-17 10:45;5,6
2017-06-17 11:00;8,15
2017-06-17 11:15;7,6
2017-06-17 11:30;8,7
2017-06-17 11:45;9,65
2017-06-17 12:00;9,95
2017-06-17 12:15;10,1
2017-06-17 12:30;9
2017-06-17 12:45;8,1
2017-06-17 13:00;8,3
2017-06-17 13:15;7,3
2017-06-17 13:30;6,35
2017-06-17 13:45;6,65
2017-06-17 14:00;7
2017-06-17 14:15;6,5
2017-06-17 14:30;8,45
2017-06-17 14:45;10,45
2017-06-17 15:00;10,7
2017-06-17 15:15;11,75
2017-06-17 15:30;11,95
2017-06-17 15:45;12,3
2017-06-17 16:00;17,3
2017-06-17 16:15;17,1
2017-06-17 16:30;17,1
2017-06-17 16:45;19,8
2017-06-17 17:00;17,75
2017-06-17 17:15;16,25
2017-06-17 17:30;15,65
2017-06-17 17:45;15,15
2017-06-17 18:00;14,65
2017-06-17 18:15;13,8
2017-06-17 18:30;14,7
2017-06-17 18:45;14,55
2017-06-17 19:00;15,25
2017-06-17 19:15;15,25
2017-06-17 19:30;17,2
2017-06-17 19:45;15,8
2017-06-17 20:00;16,45
2017-06-17 20:15;15,7
2017-06-17 20:30;14,8
2017-06-17 20:45;17,65
2017-06-17 21:00;16,4
2017-06-17 21:15;13,5
2017-06-17 21:30;13,8
2017-06-17 21:45;14,5
2017-06-17 22:00;13,3
2017-06-17 22:15;14,1
2017-06-17 22:30;15,65
2017-06-17 22:45;15,75
2017-06-17 23:00;15,55
2017-06-17 23:15;17,55
2017-06-17 23:30;11,95
2017-06-17 23:45;6
2017-06-18 00:00;4,4
2017-06-18 00:15;1,1
2017-06-18 00:30;1,95
2017-06-18 00:45;2,1
2017-06-18 01:00;1,4
2017-06-18 01:15;0,6
2017-06-18 01:30;0,6
2017-06-18 01:45;0,9
2017-06-18 02:00;0,9
2017-06-18 02:15;1,35
2017-06-18 02:30;1,75
2017-06-18 02:45;2,25
2017-06-18 03:00;2,25
2017-06-18 03:15;1,1
2017-06-18 03:30;3,4
2017-06-18 03:45;3,8
2017-06-18 04:00;2,5
2017-06-18 04:15;3,7
2017-06-18 04:30;4,4
2017-06-18 04:45;5,75
2017-06-18 05:00;12,25
2017-06-18 05:15;14,1
2017-06-18 05:30;12,3
2017-06-18 05:45;11,85
2017-06-18 06:00;13,05
2017-06-18 06:15;12,5
2017-06-18 06:30;12,9
2017-06-18 06:45;12,1
2017-06-18 07:00;8,4
2017-06-18 07:15;8,65
2017-06-18 07:30;8,6
2017-06-18 07:45;7,95
2017-06-18 08:00;6,6
2017-06-18 08:15;9,9
2017-06-18 08:30;9,55
2017-06-18 08:45;9,7
2017-06-18 09:00;11,1
2017-06-18 09:15;9,55
2017-06-18 09:30;13,2
2017-06-18 09:45;14,6
2017-06-18 10:00;13,7
2017-06-18 10:15;13,2
2017-06-18 10:30;14,3
2017-06-18 10:45;12,7
2017-06-18 11:00;13,2
2017-06-18 11:15;14,95
2017-06-18 11:30;17,1
2017-06-18 11:45;16,9
2017-06-18 12:00;17,55
2017-06-18 12:15;15,8
2017-06-18 12:30;15,7
2017-06-18 12:45;14,35
2017-06-18 13:00;19,35
2017-06-18 13:15;19,3
2017-06-18 13:30;18,8
2017-06-18 13:45;20,65
2017-06-18 14:00;18,9
2017-06-18 14:15;19,8
2017-06-18 14:30;22
2017-06-18 14:45;19,3
2017-06-18 15:00;19,75
2017-06-18 15:15;21,1
2017-06-18 15:30;19,6
2017-06-18 15:45;19,6
2017-06-18 16:00;18,65
2017-06-18 16:15;18,55
2017-06-18 16:30;19,6
2017-06-18 16:45;19,45
2017-06-18 17:00;18,8
2017-06-18 17:15;19,25
2017-06-18 17:30;17,75
2017-06-18 17:45;18,95
2017-06-18 18:00;20,2
2017-06-18 18:15;18,35
2017-06-18 18:30;16,4
2017-06-18 18:45;18,25
2017-06-18 19:00;17,1
2017-06-18 19:15;17,85
2017-06-18 19:30;19,6
2017-06-18 19:45;20,35
2017-06-18 20:00;20,3
2017-06-18 20:15;19,95
2017-06-18 20:30;19
2017-06-18 20:45;19,4
2017-06-18 21:00;19,9
2017-06-18 21:15;18,25
2017-06-18 21:30;16,5
2017-06-18 21:45;17
2017-06-18 22:00;16,75
2017-06-18 22:15;16,15
2017-06-18 22:30;17,1
2017-06-18 22:45;16,85
2017-06-18 23:00;11,9
2017-06-18 23:15;7,2
2017-06-18 23:30;6,4
2017-06-18 23:45;6,2

